Weather in Uzunkol

Kazakhstan     54°02′42″N   65°20′36″E
В апреле 2022 года жителям России запретили посещать сайт meteo.paraplan.net по решению Генеральной прокуратуры. Аудитория сайта уменьшилась в 10 раз. Владельцы сайта не видят смысла в поддержке погодного сервера в таких условиях. Сайт будет закрыт в октябре.
temp.,
°C
wind,
m/s
gust,
m/s
humid.,
%
clouds,
%
prec.,
mm/h
press.,
hPa
HPBL,
m
3 october, mon
mon300:00+3sse36365 0.0 103382
03:00+1sse35395 0.0 103271
06:00+1sse34425 0.0 103349
09:00+2sse35438 0.0 1033135
12:00+8s452859 0.0 1032615
15:00+11s34225 0.0 1031989
18:00+11s34235 0.0 1031215
21:00+6s333115 0.0 103227
4 october, tue
tue400:00+5s353536 0.0 103357
03:00+4ssw353911 0.0 103360
06:00+3ssw35425 0.0 103467
09:00+4ssw364279 0.0 1035137
12:00+10sw45265 0.0 1035465
15:00+14sw44216 0.0 1034811
18:00+13sw34235 0.0 1034140
21:00+9sw33295 0.0 103635
5 october, wed
wed500:00+7sw34315 0.0 103644
03:00+6ssw34335 0.0 103647
06:00+5sw36365 0.0 103788
09:00+6ssw3636100 0.0 1037121
12:00+11sw5625100 0.0 1036471
15:00+15sw5619100 0.0 1035899
18:00+13sw4722100 0.0 1034208
21:00+9sw3530100 0.0 103461
6 october, thu
thu600:00+7sw3432100 0.0 103362
03:00+7sw3531100 0.0 103275
06:00+7ssw3430100 0.0 103187
09:00+8ssw3828100 0.0 1030205
12:00+13ssw4720100 0.0 1029474
15:00+17ssw5614100 0.0 1027948
18:00+14s4718100 0.0 1025270
21:00+11s41022100 0.0 1025176
7 october, fri
fri700:00+11s51221100 0.0 1023254
03:00+10s51221100 0.0 1021246
06:00+10s51121100 0.0 1020229
09:00+10ssw5112097 0.0 1018305
12:00+14ssw71116100 0.0 1016508
15:00+15ssw71127100 0.0 10141613
18:00+14ssw81145100 0.1 10121276
21:00+12sw5106143 0.1 1012578